Regional Weather Roundup
Issued by NWS Spokane, WA

Home | Current Version | Previous Version | Text Only | Print | Product List | Glossary On
Versions: 1 2 3 4 5 6 7 8 9 10 11 12 13 14 15 16 17 18 19 20 21 22 23 24 25 26 27 28 29 30 31 32 33 34 35 36 37 38 39 40 41 42 43 44 45 46 47 48 49 50
000
NZUS01 KOTX 251005
RWROTX
EASTERN WASHINGTON/NORTHERN IDAHO ROUNDUP
NATIONAL WEATHER SERVICE, SPOKANE WA
300 AM PDT FRI JUL 25 2014

Note: "fair" indicated few or no clouds below 12,000 feet with no
significant weather and/or obstructions to visibility.

...NORTHEAST WASHINGTON AND NORTHERN IDAHO PANHANDLE...

CITY           SKY/WX    TMP DP  RH WIND       PRES   REMARKS
SPOKANE INTL   PTCLDY    53  41  63 S5        30.06F
SPOKANE DOWNTO CLEAR     52  45  77 E3        30.07S
COEUR D ALENE  MOCLDY    54  45  71 CALM      30.06S
DEER PARK      CLEAR     43  40  89 CALM      30.06S
SANDPOINT      CLEAR     50  50 100 S6        30.04F

...SOUTHEAST WASHINGTON AND SOUTHERN IDAHO PANHANDLE...

CITY           SKY/WX    TMP DP  RH WIND       PRES   REMARKS
WALLA WALLA    CLEAR     57  48  72 S7        30.12S
PULLMAN/MOSCOW CLEAR     49  44  83 CALM      30.13R
LEWISTON       CLEAR     57  43  59 SE5       30.09R
LOWELL           N/A     51  46  83 N3        30.15S

...COLUMBIA BASIN...

CITY           SKY/WX    TMP DP  RH WIND       PRES   REMARKS
EPHRATA        CLEAR     59  40  49 W6        30.06S
MOSES LAKE     CLEAR     54  48  80 NE5       30.07S
TRI CITIES     CLEAR     61  52  72 S6        30.09F
HERMISTON      CLEAR     53  47  79 CALM      30.10S
PENDLETON      CLEAR     50  45  83 SE3       30.12S

...EAST SLOPES CASCADES...

CITY           SKY/WX    TMP DP  RH WIND       PRES   REMARKS
THE DALLES     CLEAR     58  50  75 CALM      30.11S
YAKIMA         CLEAR     58  44  60 N5        30.10F
ELLENSBURG     CLEAR     56  46  69 NW17      30.09F
WENATCHEE      CLEAR     58  44  60 W10       30.08S
OMAK           CLEAR     44  37  76 SW3       30.06S

...SOUTHERN BRITISH COLUMBIA...

CITY           SKY/WX    TMP DP  RH WIND       PRES   REMARKS

...WESTERN MONTANA...

CITY           SKY/WX    TMP DP  RH WIND       PRES   REMARKS
MISSOULA       CLEAR     46  38  73 N3        30.12S

...NEIGHBORING CITIES...

CITY           SKY/WX    TMP DP  RH WIND       PRES   REMARKS
SEATTLE        CLOUDY    57  52  83 S5        30.20S



USA.gov is the U.S. government's official web portal to all federal, state and local government web resources and services.